Overview Statistics Trail Chart Weather Telemetry Raw packets
 

This is the latest recevied weather packets stored in our database for station/object OK1FET-4. If no packets are shown the sender has not sent any weather packets the latest 10 day(s).

<< 16 17 18 19 20 21 22 >>
Time Temp. Humidity Pressure Rain* Wind** Luminosity Snow
1788541486 27.22° C 47% 1012 hPa - - - -
1788541184 27.78° C 47% 1011.9 hPa - - - -
1788540883 28.33° C 46% 1011.8 hPa - - - -
1788540581 27.78° C 46% 1011.7 hPa - - - -
1788540279 28.33° C 45% 1011.4 hPa - - - -
1788539978 28.33° C 46% 1011.9 hPa - - - -
1788539676 28.89° C 45% 1011.8 hPa - - - -
1788539374 28.89° C 44% 1011.9 hPa - - - -
1788539073 28.89° C 44% 1011.8 hPa - - - -
1788538771 28.89° C 43% 1011.6 hPa - - - -
1788538469 28.89° C 44% 1011.7 hPa - - - -
1788538167 28.33° C 45% 1011.7 hPa - - - -
1788537865 28.89° C 45% 1011.7 hPa - - - -
1788537564 28.89° C 44% 1011.8 hPa - - - -
1788537262 28.89° C 44% 1011.8 hPa - - - -
1788536960 28.89° C 44% 1011.7 hPa - - - -
1788536658 28.89° C 44% 1011.8 hPa - - - -
1788536357 28.89° C 44% 1011.8 hPa - - - -
1788536055 28.89° C 44% 1011.7 hPa - - - -
1788535753 29.44° C 44% 1011.8 hPa - - - -
1788535451 29.44° C 44% 1011.9 hPa - - - -
1788535150 28.89° C 44% 1012 hPa - - - -
1788534848 29.44° C 44% 1011.9 hPa - - - -
1788534546 29.44° C 44% 1012 hPa - - - -
1788534244 29.44° C 44% 1012.2 hPa - - - -

* Rain since midnight (hover to see other rain measurements)
** Current wind speed in m/s (hover to see current wind gust speed)